1537131600.2,6037,19.38,74600.0,2.39,-19.71,-19.91,0,*49
1537131601.41,6038,19.38,74598.5,2.37,-19.81,-20.09,0,*4C
1537131602.63,6039,19.38,74598.0,2.39,-19.75,-19.99,0,*4B
1537131603.87,6040,19.38,74598.8,2.39,-19.85,-19.99,0,*4A
1537131605.15,6041,19.38,74596.5,2.39,-19.31,-19.61,0,*43
1537131606.35,6042,19.38,74598.3,2.37,-19.47,-19.75,0,*4A
1537131607.6,6043,19.38,74596.5,2.39,-19.61,-19.91,0,*4B
1537131608.8,6044,19.38,74596.5,2.37,-19.75,-20.09,0,*4C
1537131610.02,6045,19.38,74598.3,2.39,-19.75,-20.05,0,*4F
1537131611.25,6046,19.38,74594.8,2.37,-19.65,-19.95,0,*40
1537131612.47,6047,19.38,74596.5,2.39,-19.47,-19.75,0,*41
1537131613.72,6048,19.38,74596.5,2.39,-19.57,-19.91,0,*45
1537131614.94,6049,19.38,74600.0,2.37,-19.81,-20.05,0,*46
1537131616.16,6050,19.38,74596.3,2.39,-19.71,-19.99,0,*40
1537131617.37,6051,19.38,74596.5,2.37,-19.81,-20.05,0,*4F
1537131618.58,6052,19.38,74598.5,2.37,-19.75,-19.95,0,*44
1537131619.81,6053,19.38,74596.8,2.37,-19.61,-19.75,0,*4E
1537131621.01,6054,19.38,74594.8,2.37,-19.17,-19.47,0,*49
1537131622.22,6055,19.38,74594.3,2.41,-19.13,-19.37,0,*4A
1537131623.47,6056,19.38,74596.5,2.39,-19.27,-19.47,0,*46
1537131624.69,6057,19.38,74596.0,2.39,-19.47,-19.71,0,*44
1537131625.97,6058,19.38,74594.5,2.39,-19.31,-19.61,0,*4B
1537131627.21,6059,19.38,74598.3,2.39,-19.41,-19.47,0,*49
1537131628.43,6060,19.38,74598.0,2.39,-19.47,-19.71,0,*40
1537131629.65,6061,19.38,74596.3,2.39,-19.71,-19.99,0,*42
1537131630.9,6062,19.38,74596.5,2.39,-19.57,-19.71,0,*43
1537131632.13,6063,19.38,74596.5,2.37,-19.51,-19.81,0,*45
1537131633.33,6064,19.38,74596.8,2.41,-19.51,-19.71,0,*4C
1537131634.55,6065,19.38,74596.3,2.41,-19.51,-19.81,0,*42
1537131635.75,6066,19.38,74598.8,2.37,-19.75,-20.05,0,*40
1537131636.98,6067,19.38,74594.3,2.37,-19.51,-19.81,0,*41
1537131638.26,6068,19.38,74596.8,2.39,-19.27,-19.61,0,*4F
1537131639.52,6069,19.38,74596.5,2.41,-19.41,-19.57,0,*44
1537131640.74,6070,19.38,74594.0,2.39,-19.47,-19.71,0,*41
1537131641.97,6071,19.38,74596.0,2.41,-19.65,-19.95,0,*45
1537131643.24,6072,19.38,74598.3,2.39,-19.57,-19.85,0,*49
1537131644.47,6073,19.38,74592.0,2.37,-19.65,-20.05,0,*45
1537131645.72,6074,19.38,74596.8,2.39,-19.61,-19.91,0,*4F
1537131646.95,6075,19.38,74598.3,2.37,-19.51,-19.81,0,*42
1537131648.2,6076,19.38,74598.8,2.39,-19.61,-19.91,0,*4D
1537131649.42,6077,19.38,74594.5,2.39,-19.71,-19.99,0,*45
1537131650.64,6078,19.38,74600.0,2.37,-19.91,-20.15,0,*44
1537131651.84,6079,19.38,74600.3,2.37,-19.75,-20.09,0,*42
1537131653.04,6080,19.38,74596.3,2.37,-19.51,-19.91,0,*49
1537131654.31,6081,19.38,74596.3,2.39,-19.61,-19.85,0,*40
1537131655.52,6082,19.38,74596.0,2.37,-19.91,-20.09,0,*4C
1537131656.72,6083,19.31,74596.5,2.37,-19.75,-19.95,0,*48
1537131657.97,6084,19.38,74596.5,2.39,-19.61,-19.91,0,*40
1537131659.22,6085,19.38,74598.5,2.37,-19.61,-19.81,0,*4E
1537131660.42,6086,19.38,74598.0,2.37,-19.51,-19.75,0,*45
1537131661.65,6087,19.38,74596.3,2.37,-19.61,-19.91,0,*4D
1537131662.88,6088,19.38,74600.5,2.37,-19.61,-19.95,0,*46
1537131664.08,6089,19.38,74598.3,2.37,-19.47,-19.75,0,*4D
1537131665.28,6090,19.38,74596.0,2.37,-19.47,-19.75,0,*45
1537131666.53,6091,19.38,74596.3,2.39,-19.47,-19.85,0,*45
1537131667.78,6092,19.38,74598.5,2.39,-19.57,-19.75,0,*48
1537131669.01,6093,19.38,74596.5,2.37,-19.17,-19.61,0,*46
1537131670.21,6094,19.38,74598.5,2.37,-19.47,-19.75,0,*41
1537131671.44,6095,19.38,74598.3,2.37,-19.61,-19.91,0,*4E
1537131672.66,6096,19.38,74596.0,2.37,-19.65,-20.05,0,*4E
1537131673.89,6097,19.38,74598.0,2.37,-19.65,-19.91,0,*48
1537131675.12,6098,19.38,74596.0,2.37,-19.65,-19.91,0,*47
1537131676.32,6099,19.38,74598.3,2.37,-19.75,-19.95,0,*43
1537131677.55,6100,19.38,74596.8,2.37,-19.65,-19.95,0,*43
1537131678.8,6101,19.38,74598.8,2.39,-19.61,-19.99,0,*44
1537131680.0,6102,19.38,74598.0,2.37,-19.75,-20.05,0,*43
1537131681.23,6103,19.38,74598.8,2.37,-19.81,-20.15,0,*48
1537131682.48,6104,19.38,74598.5,2.39,-19.85,-20.09,0,*48
1537131683.7,6105,19.38,74600.5,2.37,-19.91,-20.15,0,*4F
1537131684.91,6106,19.31,74598.3,2.35,-19.91,-20.15,0,*4E
1537131686.13,6107,19.38,74600.0,2.35,-19.81,-19.95,0,*4C
1537131687.35,6108,19.38,74600.0,2.35,-19.65,-19.95,0,*49
1537131688.57,6109,19.38,74596.8,2.35,-19.65,-19.91,0,*4C
1537131689.82,6110,19.38,74596.0,2.35,-19.65,-19.81,0,*45
1537131691.07,6111,19.38,74598.5,2.33,-19.51,-19.85,0,*41
1537131692.26,6112,19.38,74600.8,2.35,-19.51,-19.75,0,*4B
1537131693.49,6113,19.38,74598.8,2.35,-19.61,-19.91,0,*43
1537131694.71,6114,19.31,74596.3,2.35,-19.51,-19.81,0,*46
1537131695.98,6115,19.38,74596.5,2.33,-19.65,-19.85,0,*42
1537131697.2,6116,19.38,74598.8,2.35,-19.65,-19.91,0,*42
1537131698.43,6117,19.38,74596.5,2.35,-19.61,-19.91,0,*47
1537131699.65,6118,19.38,74598.5,2.35,-19.65,-19.75,0,*46
1537131700.89,6119,19.38,74596.8,2.33,-19.41,-19.71,0,*43
1537131702.11,6120,19.31,74592.5,2.35,-19.47,-19.65,0,*4C
1537131703.34,6121,19.38,74598.3,2.35,-19.47,-19.61,0,*49
1537131704.56,6122,19.38,74594.3,2.35,-19.51,-19.81,0,*43
1537131705.78,6123,19.38,74596.3,2.35,-19.61,-19.95,0,*44
1537131707.03,6124,19.38,74594.0,2.33,-19.71,-19.85,0,*45
1537131708.26,6125,19.38,74598.0,2.33,-19.71,-19.91,0,*41
1537131709.47,6126,19.38,74594.3,2.35,-19.81,-19.95,0,*4F
1537131710.68,6127,19.38,74594.8,2.35,-19.81,-20.09,0,*41
1537131711.91,6128,19.38,74596.3,2.35,-19.65,-19.95,0,*4B
1537131713.1,6129,19.38,74596.8,2.35,-19.91,-20.05,0,*42
1537131714.35,6130,19.38,74594.8,2.33,-19.95,-20.15,0,*49
1537131715.56,6131,19.38,74594.3,2.35,-19.81,-20.05,0,*4A
1537131716.81,6132,19.38,74592.5,2.33,-19.95,-20.19,0,*47
1537131718.05,6133,19.38,74598.0,2.33,-19.85,-20.29,0,*44
1537131719.28,6134,19.38,74596.0,2.33,-19.71,-20.09,0,*4A
1537131720.49,6135,19.38,74594.3,2.35,-19.81,-20.09,0,*42
1537131721.74,6136,19.38,74596.0,2.33,-19.95,-20.19,0,*43
1537131722.99,6137,19.38,74592.0,2.33,-19.95,-20.15,0,*4E
1537131724.23,6138,19.31,74592.5,2.33,-19.95,-20.15,0,*41
1537131725.49,6139,19.38,74598.0,2.29,-19.85,-20.15,0,*4A
1537131726.73,6140,19.38,74598.0,2.29,-19.81,-19.99,0,*4E
1537131728.0,6141,19.38,74596.5,2.33,-19.65,-19.85,0,*43
1537131729.23,6142,19.38,74596.3,2.29,-19.81,-19.99,0,*4C
1537131730.43,6143,19.38,74600.0,2.27,-19.75,-20.05,0,*47
1537131731.67,6144,19.38,74596.8,2.29,-19.81,-20.09,0,*49
1537131732.89,6145,19.38,74596.5,2.29,-19.71,-19.99,0,*44
1537131734.12,6146,19.38,74598.8,2.33,-19.71,-19.95,0,*40
1537131735.35,6147,19.38,74596.8,2.29,-19.81,-19.99,0,*49
1537131736.57,6148,19.38,74596.5,2.29,-19.71,-19.99,0,*49
1537131737.79,6149,19.38,74598.8,2.27,-19.85,-20.05,0,*42
1537131739.06,6150,19.31,74594.8,2.29,-19.57,-19.81,0,*4D
1537131740.32,6151,19.38,74598.0,2.27,-19.61,-19.85,0,*43
1537131741.54,6152,19.38,74596.8,2.29,-19.71,-19.99,0,*42
1537131742.79,6153,19.38,74598.0,2.29,-19.37,-19.57,0,*43
1537131744.04,6154,19.38,74596.8,2.29,-19.17,-19.41,0,*41
1537131745.27,6155,19.38,74594.0,2.27,-19.23,-19.51,0,*48
1537131746.51,6156,19.38,74596.0,2.29,-19.23,-19.51,0,*45
1537131747.76,6157,19.38,74598.5,2.29,-19.37,-19.65,0,*46
1537131749.04,6158,19.38,74598.8,2.33,-19.57,-19.85,0,*4A
1537131750.27,6159,19.38,74598.8,2.33,-19.81,-19.99,0,*4D
1537131751.5,6160,19.38,74598.5,2.33,-19.71,-19.95,0,*44
1537131752.73,6161,19.38,74596.5,2.29,-19.71,-19.95,0,*4E
1537131753.97,6162,19.31,74594.0,2.29,-19.51,-19.85,0,*4E
1537131755.22,6163,19.31,74596.8,2.29,-19.65,-19.95,0,*49
1537131756.49,6164,19.38,74600.3,2.29,-19.65,-19.85,0,*4F
1537131757.73,6165,19.38,74600.0,2.29,-19.41,-19.71,0,*43
1537131758.98,6166,19.38,74594.8,2.29,-19.71,-19.85,0,*48
1537131760.21,6167,19.38,74596.3,2.29,-19.81,-20.09,0,*48
1537131761.45,6168,19.38,74596.5,2.29,-19.71,-19.85,0,*46
1537131762.68,6169,19.38,74598.3,2.29,-19.71,-19.95,0,*46
1537131763.94,6170,19.38,74600.0,2.33,-19.57,-19.95,0,*41
1537131765.22,6171,19.38,74594.5,2.29,-19.27,-19.57,0,*42
1537131766.47,6172,19.38,74596.0,2.33,-19.51,-19.81,0,*40
1537131767.69,6173,19.31,74592.8,2.33,-19.71,-19.99,0,*4A
1537131768.93,6174,19.38,74596.0,2.29,-19.81,-19.99,0,*49
1537131770.15,6175,19.38,74592.8,2.29,-19.71,-19.99,0,*47
1537131771.38,6176,19.38,74596.8,2.29,-19.81,-19.99,0,*4B
1537131772.62,6177,19.38,74594.8,2.29,-19.81,-20.09,0,*49
1537131773.85,6178,19.31,74594.8,2.29,-19.81,-20.09,0,*46
1537131775.07,6179,19.38,74596.8,2.27,-19.85,-20.05,0,*41
1537131776.27,6180,19.31,74596.0,2.27,-19.71,-19.99,0,*43
1537131777.47,6181,19.38,74596.5,2.27,-19.75,-19.99,0,*46
1537131778.69,6182,19.38,74598.3,2.33,-19.51,-19.71,0,*40
1537131779.9,6183,19.38,74594.8,2.27,-19.71,-19.99,0,*40
1537131781.09,6184,19.38,74598.3,2.27,-19.91,-20.09,0,*4A
1537131782.34,6185,19.38,74598.3,2.27,-19.85,-20.15,0,*43
1537131783.58,6186,19.38,74598.8,2.27,-19.85,-20.15,0,*40
1537131784.8,6187,19.38,74598.5,2.27,-19.99,-20.15,0,*4C
1537131786.0,6188,19.38,74598.5,2.27,-19.71,-20.05,0,*44
1537131787.2,6189,19.38,74598.8,2.27,-19.71,-19.99,0,*4A
1537131788.43,6190,19.38,74600.0,2.29,-19.81,-19.99,0,*43
1537131789.66,6191,19.38,74598.8,2.27,-19.91,-20.19,0,*4F
1537131790.88,6192,19.38,74600.3,2.27,-19.85,-20.05,0,*44
1537131792.12,6193,19.38,74596.8,2.29,-19.85,-20.09,0,*47
1537131793.37,6194,19.38,74602.8,2.25,-19.71,-19.85,0,*49
1537131794.59,6195,19.38,74600.8,2.27,-19.47,-19.61,0,*45
1537131795.88,6196,19.38,74598.5,2.25,-19.27,-19.57,0,*47
1537131797.13,6197,19.38,74598.3,2.29,-19.23,-19.51,0,*48
1537131798.38,6198,19.38,74598.3,2.27,-19.61,-19.85,0,*46
1537131799.58,6199,19.38,74596.5,2.27,-19.75,-19.99,0,*4F
1537131800.81,6200,19.38,74598.3,2.29,-19.81,-20.09,0,*4A
1537131802.08,6201,19.38,74596.5,2.29,-19.41,-19.65,0,*47
1537131803.28,6202,19.31,74598.8,2.27,-19.47,-19.71,0,*49
1537131804.5,6203,19.38,74596.5,2.27,-19.61,-19.75,0,*48
1537131805.71,6204,19.38,74596.0,2.27,-19.71,-19.91,0,*44
1537131806.91,6205,19.31,74596.8,2.27,-19.71,-19.99,0,*4D
1537131808.15,6206,19.38,74596.8,2.29,-19.71,-19.85,0,*4D
1537131809.43,6207,19.31,74596.3,2.25,-19.61,-19.85,0,*41
1537131810.68,6208,19.38,74598.5,2.27,-19.57,-19.85,0,*49
1537131811.88,6209,19.31,74594.8,2.27,-19.75,-19.99,0,*45
1537131813.08,6210,19.38,74598.5,2.27,-19.71,-19.99,0,*49
1537131814.32,6211,19.38,74596.3,2.27,-19.85,-20.19,0,*41
1537131815.55,6212,19.31,74598.5,2.25,-19.71,-19.91,0,*41
1537131816.8,6213,19.31,74598.5,2.25,-19.61,-19.91,0,*41
1537131818.02,6214,19.31,74596.8,2.27,-19.85,-20.05,0,*49
1537131819.25,6215,19.31,74596.0,2.27,-19.57,-19.75,0,*4A
1537131820.5,6216,19.38,74596.3,2.27,-19.61,-19.85,0,*43
1537131821.72,6217,19.38,74598.3,2.27,-19.75,-20.15,0,*44
1537131822.94,6218,19.31,74596.5,2.27,-19.41,-19.75,0,*40
1537131824.14,6219,19.38,74596.0,2.27,-19.47,-19.75,0,*47
1537131825.37,6220,19.38,74596.0,2.27,-19.61,-19.99,0,*4B
1537131826.57,6221,19.38,74598.5,2.27,-19.47,-19.71,0,*48
1537131827.81,6222,19.38,74598.5,2.29,-19.51,-19.81,0,*4D
1537131829.06,6223,19.38,74596.0,2.27,-19.61,-19.85,0,*45
1537131830.26,6224,19.38,74600.5,2.27,-19.71,-19.91,0,*46
1537131831.46,6225,19.38,74596.0,2.27,-19.71,-19.99,0,*4F
1537131832.68,6226,19.31,74594.0,2.27,-19.91,-20.15,0,*4C
1537131833.91,6227,19.38,74596.5,2.27,-19.61,-19.75,0,*4E
1537131835.13,6228,19.31,74596.0,2.25,-19.75,-19.99,0,*44
1537131836.4,6229,19.38,74602.5,2.25,-19.85,-20.19,0,*48
1537131837.65,6230,19.38,74600.8,2.25,-19.91,-20.19,0,*45
1537131838.93,6231,19.38,74598.0,2.25,-19.57,-19.85,0,*41
1537131840.17,6232,19.31,74596.5,2.25,-19.47,-19.61,0,*49
1537131841.4,6233,19.38,74600.3,2.25,-19.71,-19.99,0,*4A
1537131842.64,6234,19.38,74600.5,2.25,-19.85,-19.99,0,*46
1537131843.92,6235,19.31,74596.5,2.29,-19.57,-19.85,0,*49
1537131845.14,6236,19.38,74598.0,2.25,-19.75,-19.99,0,*4B
1537131846.36,6237,19.38,74602.8,2.25,-19.75,-19.99,0,*4A
1537131847.61,6238,19.31,74598.3,2.25,-19.61,-19.71,0,*46
1537131848.88,6239,19.31,74600.3,2.25,-19.57,-19.85,0,*49
1537131850.1,6240,19.38,74602.3,2.23,-19.85,-20.09,0,*40
1537131851.33,6241,19.31,74600.3,2.25,-19.71,-19.91,0,*47
1537131852.58,6242,19.31,74600.5,2.25,-19.57,-19.71,0,*4E
1537131853.8,6243,19.31,74600.8,2.23,-19.85,-20.05,0,*4F
1537131855.02,6244,19.38,74602.0,2.25,-19.75,-19.91,0,*46
1537131856.24,6245,19.31,74600.5,2.23,-19.51,-19.81,0,*46
1537131857.46,6246,19.38,74600.0,2.25,-19.47,-19.75,0,*4F
1537131858.66,6247,19.31,74598.0,2.23,-19.37,-19.75,0,*4F
1537131859.94,6248,19.38,74600.3,2.25,-19.31,-19.65,0,*41
1537131861.21,6249,19.31,74598.8,2.25,-19.23,-19.41,0,*45
1537131862.47,6250,19.31,74592.8,2.29,-19.27,-19.51,0,*44
1537131863.66,6251,19.31,74594.5,2.27,-19.47,-19.75,0,*4B
1537131864.92,6252,19.31,74594.3,2.27,-19.27,-19.61,0,*4B
1537131866.15,6253,19.31,74594.5,2.27,-19.65,-19.99,0,*4B
1537131867.39,6254,19.31,74596.3,2.27,-19.85,-20.15,0,*4C
1537131868.59,6255,19.31,74590.5,2.27,-19.47,-19.71,0,*4B
1537131869.81,6256,19.31,74592.0,2.27,-19.61,-19.91,0,*42
1537131871.04,6257,19.38,74598.3,2.27,-19.71,-19.85,0,*47
1537131872.32,6258,19.38,74598.3,2.25,-19.31,-19.57,0,*41
1537131873.57,6259,19.31,74594.0,2.27,-19.41,-19.61,0,*40
1537131874.82,6260,19.38,74598.5,2.29,-19.37,-19.65,0,*41
1537131876.02,6261,19.38,74596.8,2.27,-19.47,-19.71,0,*4C
1537131877.25,6262,19.31,74596.3,2.27,-19.57,-19.75,0,*4A
1537131878.45,6263,19.31,74596.0,2.27,-19.71,-19.91,0,*45
1537131879.67,6264,19.38,74596.3,2.27,-19.47,-19.61,0,*48
1537131880.89,6265,19.38,74594.8,2.27,-19.41,-19.71,0,*4E
1537131882.15,6266,19.31,74592.3,2.27,-19.23,-19.57,0,*4D
1537131883.38,6267,19.31,74594.3,2.27,-19.47,-19.61,0,*4B
1537131884.6,6268,19.31,74592.8,2.27,-19.57,-19.71,0,*44
1537131885.85,6269,19.31,74594.0,2.29,-19.65,-19.95,0,*40
1537131887.07,6270,19.31,74596.8,2.29,-19.71,-19.99,0,*41
1537131888.32,6271,19.31,74596.3,2.29,-19.57,-19.71,0,*42
1537131889.59,6272,19.31,74596.3,2.29,-19.65,-19.81,0,*4F
1537131890.81,6273,19.38,74596.5,2.27,-19.85,-20.05,0,*48
1537131892.03,6274,19.38,74598.8,2.27,-19.85,-20.05,0,*4F
1537131893.23,6275,19.31,74594.3,2.27,-19.71,-19.91,0,*42
1537131894.43,6276,19.38,74596.8,2.27,-19.91,-20.05,0,*48
1537131895.65,6277,19.38,74598.0,2.27,-19.85,-19.99,0,*43
1537131896.89,6278,19.38,74598.5,2.27,-19.85,-20.15,0,*42
1537131898.09,6279,19.38,74600.3,2.27,-19.75,-20.05,0,*4D
1537131899.34,6280,19.38,74600.3,2.27,-19.61,-19.85,0,*4C
1537131900.56,6281,19.31,74596.0,2.29,-19.17,-19.37,0,*4B
1537131901.78,6282,19.31,74594.3,2.29,-19.07,-19.37,0,*49
1537131903.03,6283,19.31,74590.3,2.27,-19.41,-19.61,0,*47
1537131904.28,6284,19.31,74590.0,2.27,-19.61,-19.85,0,*48
1537131905.51,6285,19.38,74594.5,2.27,-19.57,-19.75,0,*43
1537131906.76,6286,19.31,74594.3,2.33,-19.57,-19.71,0,*41
1537131907.99,6287,19.31,74594.3,2.29,-19.71,-19.95,0,*45
1537131909.26,6288,19.38,74594.8,2.29,-19.65,-19.85,0,*4E
1537131910.53,6289,19.31,74594.0,2.29,-19.57,-19.85,0,*4E
1537131911.79,6290,19.31,74596.8,2.29,-19.81,-19.85,0,*4D
1537131913.02,6291,19.31,74598.5,2.29,-19.81,-19.95,0,*4D
1537131914.22,6292,19.38,74600.3,2.27,-19.75,-19.91,0,*4F
1537131915.49,6293,19.31,74598.8,2.29,-19.57,-19.85,0,*45
1537131916.72,6294,19.31,74596.3,2.27,-19.61,-19.75,0,*46
1537131917.96,6295,19.38,74598.8,2.29,-19.85,-19.95,0,*4D
1537131919.16,6296,19.31,74600.0,2.27,-19.91,-20.05,0,*46
1537131920.43,6297,19.38,74600.5,2.29,-19.57,-19.81,0,*45
1537131921.68,6298,19.31,74598.8,2.27,-19.61,-19.85,0,*45
1537131922.96,6299,19.38,74596.5,2.29,-19.57,-19.81,0,*4B
1537131924.21,6300,19.38,74600.5,2.27,-19.61,-19.85,0,*45
1537131925.46,6301,19.31,74596.3,2.27,-19.61,-19.85,0,*44
1537131926.73,6302,19.38,74600.5,2.29,-19.65,-19.85,0,*4D
1537131927.97,6303,19.31,74598.3,2.29,-19.81,-19.95,0,*47
1537131929.21,6304,19.31,74598.5,2.29,-19.41,-19.71,0,*46
1537131930.46,6305,19.38,74602.0,2.27,-19.61,-19.85,0,*40
1537131931.65,6306,19.31,74598.0,2.27,-19.47,-19.71,0,*4C
1537131932.88,6307,19.31,74598.3,2.27,-19.47,-19.61,0,*4C
1537131934.1,6308,19.31,74596.0,2.29,-19.37,-19.71,0,*4B
1537131935.35,6309,19.31,74598.3,2.27,-19.61,-19.85,0,*4C
1537131936.58,6310,19.31,74596.8,2.27,-19.57,-19.75,0,*4E
1537131937.8,6311,19.31,74594.8,2.27,-19.41,-19.71,0,*4C
1537131939.06,6312,19.31,74598.8,2.29,-19.37,-19.57,0,*44
1537131940.28,6313,19.31,74600.0,2.27,-19.57,-19.71,0,*49
1537131941.54,6314,19.38,74602.5,2.29,-19.27,-19.51,0,*45
1537131942.81,6315,19.31,74600.5,2.29,-19.57,-19.85,0,*4A
1537131944.08,6316,19.31,74598.0,2.29,-19.41,-19.57,0,*41
1537131945.3,6317,19.31,74602.3,2.29,-19.37,-19.51,0,*47
1537131946.55,6318,19.31,74600.3,2.33,-19.07,-19.27,0,*41
1537131947.77,6319,19.31,74602.5,2.33,-18.79,-19.07,0,*4A
1537131949.01,6320,19.38,74602.3,2.33,-19.07,-19.27,0,*4A
1537131950.24,6321,19.31,74598.3,2.35,-19.13,-19.31,0,*4F
1537131951.49,6322,19.38,74600.3,2.33,-19.07,-19.27,0,*48
1537131952.71,6323,19.38,74602.5,2.33,-19.07,-19.51,0,*48
1537131953.96,6324,19.31,74598.5,2.33,-19.17,-19.41,0,*4F
1537131955.19,6325,19.31,74600.3,2.35,-19.37,-19.61,0,*48
1537131956.39,6326,19.31,74596.8,2.35,-19.13,-19.37,0,*4E
1537131957.62,6327,19.31,74598.0,2.37,-19.31,-19.47,0,*4A
1537131958.84,6328,19.31,74592.0,2.35,-19.23,-19.47,0,*44
1537131960.07,6329,19.31,74596.3,2.37,-19.23,-19.47,0,*47
1537131961.29,6330,19.31,74594.3,2.37,-19.31,-19.51,0,*4B
1537131962.5,6331,19.31,74596.8,2.37,-19.17,-19.47,0,*49
1537131963.72,6332,19.31,74598.5,2.37,-19.31,-19.47,0,*4E
1537131964.97,6333,19.31,74598.0,2.39,-19.61,-19.75,0,*45
1537131966.18,6334,19.31,74596.3,2.37,-19.51,-19.91,0,*45
1537131967.4,6335,19.31,74596.3,2.37,-19.47,-19.61,0,*4C
1537131968.66,6336,19.31,74596.8,2.37,-19.61,-19.65,0,*4F
1537131969.89,6337,19.31,74596.3,2.37,-19.65,-19.91,0,*41
1537131971.11,6338,19.31,74600.3,2.37,-19.47,-19.65,0,*45
1537131972.34,6339,19.31,74596.0,2.37,-19.61,-19.75,0,*41
1537131973.57,6340,19.38,74600.3,2.37,-19.51,-19.65,0,*4D
1537131974.8,6341,19.31,74598.8,2.37,-19.47,-19.61,0,*4F
1537131976.03,6342,19.31,74602.0,2.41,-19.47,-19.57,0,*48
1537131977.25,6343,19.31,74600.0,2.37,-19.81,-19.95,0,*4C
1537131978.44,6344,19.38,74602.8,2.37,-19.75,-19.91,0,*44
1537131979.67,6345,19.31,74596.3,2.37,-19.65,-19.91,0,*44
1537131980.92,6346,19.31,74596.5,2.37,-19.61,-19.81,0,*42
1537131982.12,6347,19.31,74598.0,2.37,-19.75,-19.91,0,*47
1537131983.34,6348,19.31,74596.8,2.37,-19.75,-19.81,0,*49
1537131984.57,6349,19.31,74600.8,2.35,-19.65,-19.91,0,*4A
1537131985.81,6350,19.38,74600.0,2.37,-19.65,-19.81,0,*41
1537131987.01,6351,19.31,74600.0,2.37,-19.75,-19.91,0,*40
1537131988.26,6352,19.38,74604.0,2.37,-19.61,-19.81,0,*47
1537131989.49,6353,19.31,74596.8,2.37,-19.61,-19.91,0,*47
1537131990.7,6354,19.31,74600.8,2.37,-19.75,-19.95,0,*41
1537131991.91,6355,19.31,74600.8,2.37,-19.81,-19.95,0,*4B
1537131993.13,6356,19.31,74602.8,2.37,-19.81,-19.91,0,*4C
1537131994.36,6357,19.31,74602.0,2.37,-19.51,-19.65,0,*4B
1537131995.58,6358,19.31,74600.8,2.37,-19.47,-19.61,0,*47
1537131996.8,6359,19.31,74602.0,2.37,-19.81,-20.05,0,*44
1537131998.02,6360,19.31,74602.8,2.37,-19.81,-20.05,0,*4E
1537131999.24,6361,19.31,74600.3,2.37,-19.91,-20.15,0,*4F
1537132000.46,6362,19.31,74600.0,2.37,-19.47,-19.65,0,*4A
1537132001.69,6363,19.31,74596.3,2.37,-19.47,-19.61,0,*4F
1537132002.92,6364,19.31,74600.0,2.37,-19.31,-19.51,0,*4A
1537132004.17,6365,19.31,74600.0,2.37,-19.61,-19.81,0,*43
1537132005.4,6366,19.31,74596.0,2.37,-19.65,-19.95,0,*41
1537132006.6,6367,19.31,74596.8,2.37,-19.91,-20.05,0,*48
1537132007.8,6368,19.31,74602.0,2.37,-19.75,-19.91,0,*4A
1537132009.02,6369,19.38,74602.3,2.37,-19.65,-19.91,0,*4A
1537132010.22,6370,19.31,74600.8,2.37,-19.75,-19.95,0,*47
1537132011.44,6371,19.31,74600.0,2.37,-19.81,-20.05,0,*4E
1537132012.66,6372,19.31,74600.5,2.37,-19.81,-20.05,0,*4D
1537132013.89,6373,19.31,74600.8,2.37,-19.61,-19.91,0,*45
1537132015.09,6374,19.31,74600.8,2.37,-19.75,-19.95,0,*43
1537132016.31,6375,19.31,74600.8,2.35,-19.47,-19.61,0,*4A
1537132017.54,6376,19.31,74600.8,2.37,-19.13,-19.23,0,*4C
1537132018.76,6377,19.31,74600.0,2.35,-19.17,-19.31,0,*48
1537132019.98,6378,19.31,74602.3,2.35,-19.47,-19.61,0,*47
1537132021.24,6379,19.31,74602.5,2.39,-19.27,-19.51,0,*4F
1537132022.44,6380,19.38,74604.0,2.37,-19.37,-19.51,0,*46
1537132023.67,6381,19.31,74602.5,2.37,-19.37,-19.61,0,*44
1537132024.87,6382,19.31,74600.5,2.37,-19.37,-19.51,0,*44
1537132026.08,6383,19.31,74600.3,2.37,-19.51,-19.75,0,*43
1537132027.32,6384,19.31,74598.8,2.39,-19.71,-19.85,0,*47
1537132028.54,6385,19.38,74602.3,2.37,-19.81,-19.95,0,*46
1537132029.74,6386,19.31,74596.8,2.37,-19.75,-19.91,0,*4A
1537132030.97,6387,19.31,74596.0,2.37,-19.61,-19.75,0,*44
1537132032.17,6388,19.31,74598.3,2.37,-19.91,-19.95,0,*4A
1537132033.4,6389,19.31,74596.3,2.37,-19.65,-19.95,0,*40
1537132034.6,6390,19.31,74598.8,2.37,-19.91,-20.05,0,*40
1537132035.82,6391,19.31,74598.3,2.39,-19.75,-19.99,0,*4A
1537132037.02,6392,19.31,74602.8,2.37,-19.91,-20.05,0,*42
1537132038.24,6393,19.31,74598.0,2.37,-19.95,-20.15,0,*46
1537132039.47,6394,19.38,74604.0,2.37,-19.95,-20.15,0,*41
1537132040.69,6395,19.31,74602.3,2.37,-19.95,-20.15,0,*40
1537132041.91,6396,19.31,74600.8,2.39,-19.75,-19.91,0,*45
1537132043.14,6397,19.31,74600.0,2.37,-19.61,-19.75,0,*45
1537132044.36,6398,19.31,74602.3,2.33,-19.71,-19.71,0,*4B
1537132045.56,6399,19.31,74600.5,2.37,-19.51,-19.75,0,*48
1537132046.76,6400,19.31,74600.0,2.37,-19.75,-19.95,0,*47
1537132048.0,6401,19.31,74602.8,2.37,-19.37,-19.61,0,*4B
1537132049.23,6402,19.31,74598.8,2.37,-19.51,-19.61,0,*48
1537132050.42,6403,19.31,74598.8,2.37,-19.75,-19.91,0,*40
1537132051.62,6404,19.31,74598.8,2.37,-19.91,-20.09,0,*46
1537132052.84,6405,19.31,74598.0,2.37,-19.91,-20.15,0,*4A
1537132054.05,6406,19.31,74598.3,2.37,-19.95,-20.25,0,*4E
1537132055.26,6407,19.31,74596.5,2.37,-19.95,-20.25,0,*4F
1537132056.46,6408,19.31,74598.5,2.37,-19.95,-20.09,0,*4E
1537132057.68,6409,19.31,74596.3,2.37,-19.95,-20.15,0,*42
1537132058.91,6410,19.31,74600.0,2.37,-19.95,-20.15,0,*4A
1537132060.1,6411,19.31,74602.5,2.35,-19.91,-20.09,0,*40
1537132061.32,6412,19.31,74600.5,2.35,-19.31,-19.51,0,*4E
1537132062.53,6413,19.31,74596.3,2.37,-19.37,-19.51,0,*4B
1537132063.75,6414,19.31,74598.5,2.39,-19.47,-19.75,0,*43
1537132065.0,6415,19.31,74596.5,2.35,-19.61,-19.81,0,*41
1537132066.19,6416,19.31,74596.0,2.37,-19.75,-19.91,0,*44
1537132067.42,6417,19.31,74592.8,2.37,-19.65,-19.91,0,*44
1537132068.62,6418,19.31,74588.8,2.37,-19.75,-19.91,0,*4A
1537132069.82,6419,19.31,74588.8,2.37,-19.91,-20.05,0,*46
1537132071.02,6420,19.31,74586.8,2.37,-19.91,-20.05,0,*4C
1537132072.23,6421,19.31,74592.3,2.37,-19.81,-20.05,0,*4C
1537132073.45,6422,19.31,74590.3,2.37,-19.81,-20.05,0,*4F
1537132074.67,6423,19.31,74590.3,2.37,-19.81,-19.95,0,*4D
1537132075.87,6424,19.31,74584.0,2.37,-19.75,-19.95,0,*41
1537132077.11,6425,19.31,74584.0,2.39,-19.85,-20.05,0,*42
1537132078.33,6426,19.31,74590.0,2.37,-19.81,-19.91,0,*4C
1537132079.58,6427,19.31,74590.5,2.37,-19.65,-19.81,0,*46
1537132080.77,6428,19.31,74596.8,2.35,-19.91,-20.05,0,*46
1537132081.99,6429,19.31,74598.8,2.35,-19.91,-20.15,0,*46
1537132083.21,6430,19.31,74600.8,2.37,-19.65,-19.91,0,*41
1537132084.44,6431,19.31,74602.3,2.37,-19.65,-19.91,0,*40
1537132085.68,6432,19.31,74602.5,2.39,-19.75,-19.85,0,*49
1537132086.91,6433,19.31,74604.8,2.37,-19.75,-19.81,0,*42
1537132088.11,6434,19.31,74604.5,2.37,-19.91,-20.09,0,*45
1537132089.33,6435,19.31,74602.8,2.39,-19.99,-20.09,0,*42
1537132090.55,6436,19.31,74602.5,2.37,-19.95,-20.15,0,*4E
1537132091.75,6437,19.31,74600.0,2.37,-19.91,-20.09,0,*46
1537132092.97,6438,19.31,74606.5,2.37,-19.81,-19.95,0,*47
1537132094.17,6439,19.31,74604.3,2.37,-19.91,-20.05,0,*44
1537132095.39,6440,19.31,74600.8,2.37,-19.91,-20.15,0,*4B
1537132096.61,6441,19.31,74606.0,2.37,-19.95,-20.15,0,*4E
1537132097.81,6442,19.31,74604.8,2.35,-19.91,-20.05,0,*4A
1537132099.0,6443,19.31,74600.0,2.35,-19.91,-20.09,0,*47
1537132100.2,6444,19.31,74604.0,2.35,-19.91,-20.09,0,*40
1537132101.4,6445,19.31,74602.5,2.37,-19.91,-20.25,0,*4D
1537132102.61,6446,19.31,74600.5,2.35,-19.81,-20.05,0,*4F
1537132103.83,6447,19.31,74600.8,2.35,-19.81,-19.95,0,*4D
1537132105.05,6448,19.31,74600.3,2.35,-19.65,-19.91,0,*4C
1537132106.25,6449,19.31,74600.8,2.35,-19.95,-20.09,0,*49
1537132107.46,6450,19.31,74598.3,2.35,-19.75,-19.81,0,*45